Location: Basse Occidentale du Courleau
(48.3833°N, 4.8333°W)
Time: 19:52:43
(UTC+00:00)

Meteor 2-10 Rocket - Pass Details

Date: 05 July 2020
Orbit: 734 x 884 km, 81.2° (Epoch: 05 August)

Event Time Altitude Azimuth Distance (km) Brightness Sun altitude
Rises 21:09:14 0° 346° (NNW) 3,192 7.9 -6.7°
Reaches altitude 10° 21:11:33 10° 344° (NNW) 2,275 7.1 -6.9°
Maximum altitude 21:16:37 68° 262° (W) 824 3.8 -7.5°
Drops below altitude 10° 21:21:49 10° 180° (S) 2,336 5.6 -8.1°
Enters shadow 21:23:40 - 179° (S) 3,066 6.2 -8.3°
